Dewpoint
19 12 7 14 27 29 32 37 36 41 44 44 45 45 53 56 57 57 59 60 61 61 62 64 66 67 68 69 69 70 71 72 72 71 71 71 70 72 71 72 71 71 72 71
15 9 13 17 22 29 36 35 36 40 43 43 45 44 50 55 55 56 57 59 60 61 62 64 65 65 66 67 69 70 71 72 73 72 72 71 71 72 71 72 73 72 72 72
8 7 14 21 21 23 33 34 36 36 41 45 44 40 47 54 55 56 56 57 57 58 60 61 63 64 65 66 68 69 71 71 73 73 73 73 73 72 71 71 71 71 72 72
12 9 11 16 21 22 22 34 37 38 37 34 41 32 41 47 53 55 55 56 56 57 59 59 61 63 64 65 67 68 70 71 72 73 72 71 69 69 70 70 70 71 72 71
16 9 13 11 18 25 24 30 31 35 35 37 41 36 32 48 48 52 54 54 55 55 57 58 59 61 63 64 66 67 70 71 72 73 72 71 70 70 70 69 70 72 72 71
19 15 9 14 21 26 26 27 30 36 33 27 29 35 26 44 45 46 50 53 54 55 56 57 59 60 62 63 65 66 69 70 71 72 72 72 71 71 69 68 66 68 69 68
21 17 13 13 17 25 23 22 22 24 26 22 31 37 30 36 43 44 46 50 52 54 55 56 58 59 61 63 64 66 68 69 70 70 71 71 71 72 70 69 66 66 67 66
21 16 17 14 11 20 22 20 20 19 20 21 34 31 29 37 38 44 47 49 51 52 54 56 58 60 61 62 64 65 66 68 69 69 71 71 72 71 70 69 66 65 66 65
18 18 13 13 17 19 22 20 21 21 21 19 23 33 31 34 37 40 43 47 50 52 53 55 58 59 61 63 65 66 67 68 68 69 71 71 72 71 69 68 67 66 66 63
19 15 9 10 13 19 18 20 17 20 19 18 19 23 17 28 29 38 42 45 48 52 55 56 58 59 61 62 64 65 67 67 68 69 70 70 71 71 71 69 66 65 64 63
22 14 8 13 10 7 15 15 21 19 19 17 17 17 28 25 30 31 39 44 47 51 55 56 59 60 61 62 63 65 65 67 67 69 70 70 70 70 70 68 65 64 64 64
19 19 17 12 13 13 11 15 18 16 21 19 18 16 26 29 32 34 31 41 46 52 55 57 58 60 60 61 62 63 64 65 67 68 70 69 70 69 67 67 63 64 62 63
19 17 16 15 16 14 14 13 16 17 19 21 15 15 27 30 32 33 38 43 48 52 54 57 58 60 61 61 63 63 65 64 65 68 68 68 68 67 68 64 61 62 63 62
29 28 23 19 17 14 11 13 16 16 14 15 19 16 22 23 30 36 38 46 49 51 54 56 58 61 62 63 64 64 64 64 65 66 68 68 67 67 65 64 62 63 63 63
34 27 27 26 25 19 15 9 13 17 16 15 15 21 20 26 29 33 38 48 49 51 53 56 58 61 63 64 65 65 64 66 66 67 68 68 67 66 66 64 63 63 63 63
28 32 23 19 24 20 15 14 11 15 14 20 16 23 25 31 36 40 41 49 49 49 52 55 57 59 61 63 64 64 65 66 67 68 68 68 67 66 65 64 63 61 62 62
40 32 32 26 18 17 15 16 15 16 18 19 17 21 28 29 33 35 40 48 50 50 50 53 56 59 60 61 62 62 64 65 67 68 68 68 68 66 65 64 64 63 63 62
44 41 32 29 23 15 15 17 16 16 18 23 20 25 31 29 34 43 46 46 49 51 52 53 53 56 59 59 60 61 64 66 67 68 68 68 67 66 65 65 64 63 63 63
43 38 35 29 23 23 23 30 18 14 15 22 27 30 34 35 41 43 46 44 46 49 52 53 53 55 58 57 60 62 64 65 66 67 68 68 68 66 66 65 64 65 64 63
43 44 38 36 29 20 36 43 45 44 21 42 43 41 40 39 30 40 47 46 48 50 52 55 56 57 58 60 61 62 63 64 66 67 68 69 68 67 66 65 64 64 63 62
38 38 36 40 36 30 44 44 46 28 26 44 44 43 43 42 46 48 51 53 55 55 57 59 59 59 61 63 63 63 64 65 66 68 69 69 68 67 66 65 64 64 63 62
36 37 39 42 38 32 44 45 39 44 46 46 46 47 47 48 49 50 51 53 53 53 54 56 58 60 63 64 64 65 65 67 68 68 68 67 67 65 65 64 63 64 63 62
38 40 42 42 42 44 43 46 47 48 46 47 49 49 51 52 53 54 55 56 58 59 60 61 60 62 63 65 65 64 66 66 67 67 67 66 66 65 64 63 62 62 61 60
46 43 40 43 46 44 44 43 44 45 46 48 50 49 49 50 55 57 58 58 59 60 60 61 61 62 63 64 65 65 65 66 66 66 65 66 65 64 63 63 62 62 60 59
45 47 44 42 42 42 43 46 45 45 43 43 44 46 46 46 49 55 57 59 60 61 61 62 62 63 63 64 64 65 65 65 64 64 63 63 62 62 61 59 59 59 60 58
46 46 43 38 43 45 44 45 42 41 42 43 42 42 44 46 47 48 52 55 57 59 62 62 63 63 63 64 64 64 65 64 63 62 61 60 58 58 58 56 54 46 48 50
Wind_Speed
8 15 25 22 20 13 19 18 19 10 12 14 16 14 8 16 19 22 22 23 24 26 24 22 22 21 20 19 19 19 19 19 15 13 11 10 10 9 9 9 10 9 6 6
8 23 17 18 17 12 18 23 20 8 11 14 11 17 11 19 26 24 24 24 25 23 22 23 23 22 23 22 22 21 21 19 18 15 11 9 9 9 9 8 7 7 8 8
18 9 13 14 17 17 18 24 20 18 11 3 8 19 14 16 21 22 23 23 24 25 26 25 26 25 23 23 23 22 22 20 18 16 11 6 4 3 5 6 7 10 9 7
11 12 20 17 21 20 24 17 19 19 15 20 14 24 16 22 23 28 27 28 27 26 24 24 25 26 26 25 22 22 22 21 18 17 16 16 14 13 10 9 9 8 8 9
10 12 16 27 25 18 15 15 21 19 20 9 10 9 15 12 23 31 33 31 31 29 28 28 27 26 25 24 22 22 22 20 19 19 18 17 16 13 8 7 7 9 9 9
18 3 18 17 18 22 12 13 7 7 11 15 18 18 13 12 22 33 30 31 33 31 29 28 25 24 24 23 23 23 22 22 21 21 21 20 18 15 11 9 9 10 11 11
14 17 9 12 17 17 17 17 11 14 12 14 7 16 25 14 22 29 26 35 34 31 29 28 28 28 27 26 25 24 23 24 22 23 22 21 20 19 17 14 12 12 13 12
20 19 21 17 20 15 24 29 21 22 17 19 6 15 12 20 20 18 20 22 28 32 30 31 31 29 27 27 27 25 24 23 23 24 23 21 21 19 17 16 14 15 15 14
17 21 5 15 11 22 13 22 21 19 2 9 9 7 13 17 16 13 21 20 28 33 35 35 32 30 28 28 29 29 26 24 24 25 22 22 21 21 19 16 15 16 15 12
14 7 22 13 16 10 15 17 18 13 26 24 12 7 10 8 14 15 15 25 30 32 33 34 33 32 29 31 29 27 27 27 25 23 24 24 23 21 18 16 16 15 15 14
20 18 8 8 21 30 13 12 5 10 13 24 25 22 12 18 20 16 19 25 26 29 33 33 32 32 33 31 28 28 27 26 24 25 24 23 22 19 17 17 19 19 16 16
17 13 20 27 7 12 24 24 23 23 18 10 16 22 5 19 19 15 18 15 19 26 29 29 31 32 30 29 28 28 28 29 30 27 24 25 25 25 26 26 15 15 17 16
12 8 16 15 22 19 12 26 26 20 17 26 25 21 6 10 15 21 18 13 13 20 23 26 27 28 29 29 28 30 30 33 31 25 26 26 26 25 26 22 21 21 17 15
9 9 15 24 26 23 23 21 22 26 28 24 26 25 15 16 20 21 19 19 13 18 23 25 24 26 27 28 28 29 29 28 25 27 28 27 28 30 27 23 22 16 14 16
11 9 20 33 34 35 33 30 26 26 35 31 27 26 25 23 26 27 23 13 13 18 21 26 26 26 25 24 23 23 24 22 24 25 27 29 26 22 19 18 16 17 12 16
5 3 3 20 33 30 37 35 30 30 31 25 27 19 17 17 16 15 21 17 19 21 24 27 24 22 24 25 24 21 22 23 22 23 26 22 21 20 20 20 21 27 26 24
7 1 7 13 15 22 31 33 31 28 29 27 30 21 13 16 17 24 24 20 24 24 24 23 27 26 22 21 18 19 20 20 21 23 23 21 20 22 24 25 26 29 28 27
4 6 3 12 4 13 23 29 32 31 27 21 19 17 18 22 22 7 10 17 18 15 15 14 14 15 14 14 16 16 17 20 20 20 20 18 19 21 23 26 29 28 22 21
7 9 4 6 8 13 12 6 23 29 33 24 23 20 14 9 11 5 3 7 10 12 10 11 13 13 14 16 16 16 15 14 16 18 18 19 21 23 25 27 27 24 20 19
18 19 10 4 13 8 2 7 7 2 24 14 14 16 10 9 18 6 4 2 8 8 13 17 16 13 13 11 16 16 14 15 18 16 16 17 18 20 21 22 22 17 13 11
10 1 5 13 13 9 8 21 6 15 11 10 11 9 13 8 4 10 13 17 17 20 14 16 17 14 11 11 13 13 11 9 8 11 15 17 19 20 20 19 17 15 15 15
11 13 7 4 8 9 28 14 6 4 9 19 25 28 28 24 22 20 19 15 22 23 19 14 18 14 10 9 9 9 7 5 10 14 13 14 14 16 17 19 16 18 18 20
10 11 14 13 4 18 16 11 3 10 18 16 25 28 27 24 19 19 17 15 17 15 19 14 14 12 9 8 7 8 9 13 15 14 15 15 17 17 18 18 18 16 14 14
5 12 10 9 7 12 9 12 17 17 17 14 17 18 25 24 19 19 17 15 16 13 16 13 12 10 7 6 7 12 12 8 13 12 11 13 16 17 17 18 18 16 14 13
5 2 16 6 19 8 9 9 10 16 17 22 23 22 19 25 21 19 19 16 15 13 13 10 10 10 9 7 8 10 10 13 15 16 16 16 16 17 17 12 8 8 6 4
8 1 7 13 12 5 8 9 13 20 17 16 22 22 19 22 18 19 18 15 13 12 9 9 9 8 6 7 8 8 9 10 12 14 14 13 13 13 14 10 8 15 7 3
Wind_Direction
192 198 201 195 196 208 207 212 200 179 167 191 220 243 215 196 207 201 203 202 204 209 207 209 210 213 216 216 214 213 210 213 216 208 213 219 222 219 226 237 231 230 223 210
182 218 204 197 202 196 203 213 210 157 157 191 204 235 228 204 217 212 208 208 212 213 207 212 215 213 214 218 217 216 217 215 213 212 212 215 208 223 225 219 211 214 208 219
213 216 197 196 204 196 208 207 204 201 173 153 199 245 227 221 222 220 224 222 218 216 210 210 212 213 212 215 215 217 217 217 214 212 207 182 181 190 212 224 218 218 218 203
222 220 197 202 209 198 214 218 212 195 181 226 201 259 230 221 217 218 224 222 221 217 216 213 210 211 213 214 213 213 218 218 211 201 203 207 215 224 227 219 215 202 197 192
199 194 199 205 208 200 214 193 195 196 201 193 206 236 259 202 222 224 220 221 223 218 214 215 212 211 211 212 210 210 213 215 211 204 206 207 219 226 217 203 200 207 191 195
221 177 206 204 204 196 151 128 137 125 189 227 220 214 239 197 221 230 220 216 219 217 214 216 213 209 212 211 210 210 209 212 207 208 207 210 214 214 210 204 209 209 201 194
216 230 225 198 193 196 194 173 184 205 206 228 222 215 244 237 237 229 218 215 213 214 215 211 207 207 209 207 208 207 207 213 206 207 209 209 214 210 208 204 209 206 200 202
209 223 219 200 208 188 194 200 205 210 212 225 178 219 251 238 258 237 234 222 214 214 211 213 208 206 205 206 208 208 209 212 205 206 206 206 210 210 208 206 205 205 206 203
200 222 212 205 195 188 188 213 225 233 72 229 207 245 278 264 252 225 222 209 210 211 209 210 207 206 202 203 207 206 207 210 207 207 202 205 208 209 208 203 206 206 202 195
205 216 214 185 206 194 206 185 205 217 228 237 228 237 240 245 253 237 211 214 218 208 207 207 206 203 203 206 208 206 207 209 208 206 206 207 209 207 205 196 202 210 203 195
200 213 211 215 218 216 199 203 218 237 230 234 240 241 218 242 251 247 236 224 218 206 203 204 202 202 202 206 205 205 204 207 208 208 209 208 207 202 202 215 201 188 202 195
208 214 230 236 238 247 231 220 210 222 213 229 246 234 213 231 248 247 248 234 225 207 202 201 199 202 206 208 208 207 207 208 210 208 207 207 202 199 196 195 205 216 187 209
164 202 222 242 241 238 238 227 223 232 244 223 232 235 231 249 254 249 255 252 218 203 196 196 198 200 204 207 208 209 210 212 213 207 208 210 207 204 208 199 183 198 172 205
174 199 217 233 235 234 233 240 224 221 231 229 231 242 230 243 246 249 240 247 218 199 192 193 193 198 201 205 207 211 214 217 214 211 212 212 209 207 202 193 189 182 169 190
184 220 232 231 231 218 222 228 222 220 231 233 235 226 230 233 239 240 236 236 203 197 195 198 196 198 200 205 208 214 217 212 213 212 215 217 214 211 204 181 140 115 88 328
206 219 268 253 240 234 219 219 227 222 226 228 238 227 225 236 237 249 229 204 203 204 204 203 200 199 202 202 204 207 211 212 208 211 218 220 214 201 188 173 163 153 178 189
166 114 329 285 242 231 238 222 222 227 225 212 226 229 222 232 239 241 231 204 207 204 204 204 199 197 199 201 196 201 205 205 208 213 219 216 208 198 185 174 172 170 190 198
204 112 108 293 234 219 239 233 225 218 221 219 245 251 232 236 234 239 233 211 221 217 218 213 196 189 187 190 194 196 196 200 205 212 216 214 206 199 190 180 182 182 203 190
196 104 62 312 285 279 233 212 219 221 237 233 234 238 247 225 176 203 258 209 211 195 179 187 182 181 177 182 178 175 177 187 204 215 214 209 205 197 192 189 183 190 200 211
107 104 93 321 289 270 58 335 344 284 227 188 211 223 215 171 203 171 4 188 120 141 157 149 143 140 151 163 159 163 170 184 208 210 209 204 201 200 196 198 187 199 206 200
177 153 44 312 268 270 4 329 271 184 212 163 181 157 144 166 99 99 107 86 91 93 97 111 114 117 129 150 153 152 157 193 213 200 194 188 193 193 187 173 163 167 169 161
164 159 140 302 253 250 353 323 240 59 104 131 109 109 108 107 99 93 92 96 93 92 88 84 95 89 85 86 85 96 137 172 191 171 190 181 176 167 158 156 154 161 166 166
165 170 146 201 263 321 339 291 356 104 93 87 102 106 108 100 92 92 84 73 68 75 83 73 80 83 70 81 106 148 166 171 167 166 178 168 170 163 159 157 153 155 178 181
57 156 149 135 92 291 4 50 62 71 73 71 81 91 101 94 99 83 84 76 81 77 78 82 84 83 78 85 120 143 141 161 150 157 171 170 168 157 157 158 165 170 179 176
41 224 148 106 138 150 71 61 65 80 81 79 73 70 63 94 76 87 80 76 71 65 62 64 79 89 80 77 82 89 153 164 151 165 169 170 164 160 155 142 144 173 150 193
345 345 182 170 147 121 136 132 100 77 61 64 80 74 65 66 82 79 76 69 65 66 73 70 74 87 102 107 123 146 153 163 160 160 166 167 154 152 155 156 132 53 57 21